User: anonymous   Login
Location: Newark
(40.7066°N, 111.8219°W)
Time: 20:41:59
(UTC+00:00)
Language:

Transit 2A - Orbit

View from above orbital plane
View from above orbital plane
View from above satellite
View from above satellite

Ground track
Ground track

The orbit data is extracted from the following two-line orbital elements,

1    45U 60007A   19324.18698411 -.00000035  00000-0  18177-4 0  9996
2    45  66.6946 214.9976 0248519 109.2787 253.5373 14.33656230 92562
Epoch (UTC): 20 November 2019 04:29:15
Eccentricity: 0.0248519
inclination: 66.6946°
perigee height: 601 km
apogee height: 957 km
right ascension of ascending node: 214.9976°
argument of perigee: 109.2787°
revolutions per day: 14.33656230
mean anomaly at epoch: 253.5373°
orbit number at epoch: 9256

The dashed part of the orbit path shows where the satellite is in the earth's shadow,  

DLR